Temperature
23 25 25 25 26 26 26 26 25 25 25 25 24 22 21 20 20 20 18 17 16 15 14 14 14 14 14 14 14 15 15 15 14 14 14 14 14 14 14 14 14 14 14 14
24 24 25 26 25 25 26 25 25 24 24 24 23 22 21 20 20 19 18 17 16 15 14 13 13 13 13 14 14 14 14 14 14 14 14 14 14 14 14 13 14 14 14 14
24 25 25 25 25 25 25 26 25 24 24 24 23 22 21 20 19 18 18 17 16 15 14 13 13 13 13 13 13 13 13 13 13 13 13 13 13 13 13 13 13 13 13 13
25 25 24 24 25 25 25 26 25 24 24 24 24 24 22 21 19 19 18 17 16 15 14 13 13 12 12 12 12 12 12 13 13 13 13 13 13 13 12 12 12 12 12 12
24 25 24 25 25 25 26 26 25 25 25 25 24 24 24 22 20 20 18 16 15 14 13 12 12 11 11 11 11 12 12 12 12 12 12 12 12 12 12 12 12 12 12 12
25 25 25 25 25 25 25 25 25 25 25 24 24 24 24 23 22 21 19 16 14 13 12 12 11 11 11 11 11 11 11 11 11 11 11 11 11 11 11 11 11 11 11 11
24 25 25 25 25 24 25 24 24 24 24 24 24 24 24 23 23 21 19 16 14 13 12 11 11 11 10 10 10 10 10 10 10 10 10 10 10 10 10 11 11 11 11 11
24 24 25 25 25 25 25 25 24 23 23 24 24 24 24 22 21 19 18 16 14 12 12 11 10 10 10 10 10 10 9 9 9 10 10 10 10 10 10 10 10 10 10 10
24 24 25 25 25 26 25 25 26 25 24 24 24 24 22 20 20 18 16 15 13 12 11 11 10 10 9 9 9 9 9 9 9 9 9 9 9 9 9 9 9 9 9 9
25 24 25 25 25 25 26 26 25 24 23 23 24 24 24 21 20 19 17 15 13 12 11 10 10 9 9 9 9 9 9 9 9 9 9 9 9 9 9 9 9 9 9 9
24 24 24 24 24 25 24 24 25 25 24 23 23 24 24 23 21 20 17 15 13 12 11 10 9 9 8 8 8 8 8 8 8 8 8 8 8 8 8 8 8 8 8 8
24 24 24 24 25 25 25 25 24 24 23 24 23 23 22 22 21 19 17 14 13 11 10 10 9 8 8 8 8 8 8 8 8 8 8 8 8 8 8 8 7 7 7 7
23 23 22 23 23 24 24 24 24 24 24 23 23 23 20 21 20 18 16 14 12 10 10 9 9 8 8 8 8 8 8 8 8 7 7 7 7 7 7 7 7 7 7 7
22 22 23 23 24 24 24 24 24 24 24 23 23 23 21 20 19 17 14 13 11 10 10 9 8 8 8 7 7 7 7 7 7 7 7 7 7 7 7 6 6 6 6 7
22 22 22 23 23 24 23 24 24 23 23 23 23 23 22 20 18 16 14 12 11 10 9 9 8 8 7 7 7 7 7 7 7 7 6 6 6 6 6 6 6 6 6 6
21 21 22 22 23 23 23 23 23 23 23 23 23 22 20 18 16 14 13 12 11 10 9 9 8 8 7 7 7 7 6 6 6 6 6 6 6 6 6 6 6 6 6 6
21 21 21 22 23 23 22 23 23 23 23 22 22 21 19 17 15 14 13 12 11 10 9 8 8 7 7 7 6 6 6 6 6 6 6 6 6 6 6 6 6 5 5 6
20 21 21 22 22 21 22 22 22 22 22 22 20 19 18 16 14 13 12 11 10 9 9 8 8 7 7 6 6 6 6 6 6 6 6 6 6 6 5 5 5 5 5 5
20 20 21 21 21 22 22 21 22 21 21 20 19 17 15 14 13 12 11 10 10 9 8 8 7 7 6 6 6 6 6 6 6 6 6 6 6 5 5 5 5 5 5 5
20 20 21 21 21 21 21 21 20 21 20 19 18 16 15 15 16 13 10 10 9 8 8 7 7 6 6 6 6 6 6 6 6 6 5 5 5 5 5 5 5 5 5 5
20 20 20 21 20 21 20 20 20 20 19 17 16 15 15 15 14 11 10 9 8 8 7 7 7 6 6 6 6 6 6 6 6 5 5 5 5 5 5 5 5 5 5 5
20 21 20 20 20 20 18 20 19 18 16 16 15 14 13 12 10 10 9 8 8 7 7 7 7 6 6 6 6 6 6 6 5 5 5 5 5 5 5 5 5 5 5 5
20 19 20 20 19 17 17 17 15 15 15 15 14 13 12 10 10 9 8 8 8 7 7 7 7 6 6 6 6 6 6 6 5 5 5 5 5 5 5 5 5 5 5 6
19 18 19 19 19 17 16 15 15 14 14 14 13 12 11 10 9 9 8 8 8 7 7 7 7 6 6 6 6 6 6 5 5 5 5 5 5 5 5 5 6 6 6 6
19 18 19 19 18 17 15 15 14 13 13 12 12 11 11 10 9 8 8 8 7 7 7 7 7 7 6 6 6 6 6 6 6 6 6 6 6 6 5 6 6 6 5 5
19 18 19 19 17 17 16 14 13 13 12 12 11 10 10 10 9 8 8 8 7 7 7 7 7 7 6 6 6 6 6 6 6 6 6 6 6 6 6 6 6 6 6 6
Wind_Speed
9 10 11 10 7 3 7 8 9 7 6 7 8 9 9 8 7 7 7 7 7 7 7 7 7 7 8 8 7 7 5 4 2 1 0 1 0 0 1 1 2 2 2 3
10 10 7 6 6 6 8 9 9 8 6 4 8 7 8 7 7 7 7 7 7 7 6 6 7 7 8 8 7 6 6 5 4 2 1 0 0 0 0 1 3 4 3 3
10 7 7 8 9 9 9 8 8 8 7 6 7 8 9 8 7 7 7 6 7 6 6 6 6 7 7 7 7 6 6 5 5 3 1 1 1 1 0 1 1 3 4 3
8 6 9 10 10 9 8 6 6 8 9 7 9 6 10 11 10 10 9 8 8 7 6 6 6 6 7 6 6 6 6 6 5 4 3 2 1 1 1 1 2 2 3 4
8 9 10 10 9 8 3 5 7 8 7 6 8 8 7 11 11 12 11 10 8 7 7 6 6 6 6 6 6 6 6 6 6 5 4 2 2 2 2 2 2 2 3 4
6 6 6 6 6 6 6 7 6 8 8 9 6 8 5 8 10 11 12 11 10 9 8 7 7 6 6 6 6 6 6 7 6 6 6 5 4 3 3 3 3 2 3 3
9 9 7 6 8 9 9 8 6 7 8 5 4 6 1 4 5 8 12 13 12 10 9 8 7 6 6 6 6 6 6 7 6 7 7 6 5 3 3 3 3 4 4 4
10 10 9 8 8 7 11 10 6 5 5 3 5 5 2 4 4 6 10 12 13 11 9 8 7 6 5 6 5 5 6 6 6 6 6 6 5 4 4 5 4 4 4 4
7 7 8 6 6 6 9 9 6 6 6 5 3 3 4 6 7 9 11 13 13 12 10 9 7 6 5 5 5 5 5 6 6 6 6 6 6 5 5 5 4 5 4 4
4 5 7 7 7 4 5 5 5 7 6 6 5 5 3 8 10 12 13 13 13 12 11 9 7 6 5 5 4 4 5 5 5 6 5 5 5 5 5 5 7 6 6 5
4 5 6 8 8 7 6 6 6 7 6 8 6 2 3 3 7 11 13 13 14 13 12 10 8 7 6 5 5 4 5 5 5 6 6 6 5 6 6 6 6 6 6 5
3 4 6 6 3 2 6 6 7 7 6 7 8 2 5 2 5 9 11 13 13 13 12 11 9 8 6 5 5 4 4 5 5 5 5 5 6 6 6 6 6 6 6 6
2 4 6 7 7 6 6 5 7 7 7 8 9 2 5 4 6 8 11 12 13 13 12 11 10 8 7 6 5 4 4 4 5 5 5 6 6 6 6 6 6 6 6 7
2 3 5 5 3 4 6 5 6 8 8 8 8 6 1 4 6 8 11 12 13 12 12 11 10 8 7 6 5 4 4 4 4 5 5 6 6 6 6 6 6 6 6 7
2 2 2 3 3 3 5 6 6 8 8 9 8 7 2 3 6 9 11 12 13 13 12 11 10 8 7 7 5 4 5 4 4 5 5 5 5 5 6 6 6 6 6 6
1 2 2 3 4 4 5 6 6 7 7 8 8 4 3 6 8 9 11 12 13 12 12 11 10 10 8 7 6 5 5 4 4 5 5 5 5 6 6 6 6 6 6 7
2 3 4 4 4 6 5 3 5 5 4 6 6 1 6 7 8 9 10 11 12 12 12 11 10 9 8 8 7 6 5 5 5 5 5 5 5 6 6 6 7 7 7 7
3 3 3 4 4 5 2 3 2 3 2 2 2 4 5 6 7 7 8 10 11 12 12 11 10 10 8 8 7 6 6 6 5 6 6 6 5 6 6 6 7 6 6 6
4 3 3 4 5 3 2 1 1 3 1 3 3 6 8 10 9 7 6 8 9 11 11 11 10 10 9 8 8 7 7 6 6 6 6 5 6 6 6 7 7 6 6 6
4 5 4 4 5 3 3 3 2 4 2 4 4 7 9 9 5 6 8 10 11 11 11 11 11 11 10 9 8 7 7 6 6 6 6 6 6 6 7 7 6 6 5 5
5 4 5 5 4 1 5 3 3 3 3 3 4 7 8 4 5 11 13 12 12 13 13 12 12 10 9 9 8 7 7 7 6 6 7 6 6 7 7 6 5 5 5 5
3 3 3 3 4 1 6 2 3 4 3 4 6 7 8 11 13 14 14 13 13 13 13 12 11 10 9 9 8 8 8 7 7 7 7 7 6 6 6 5 5 4 4 5
1 3 3 2 3 4 4 4 4 2 4 5 8 10 12 13 14 14 14 13 13 13 12 11 11 11 10 8 8 8 8 7 7 7 6 6 6 5 4 4 4 4 3 4
1 1 1 1 2 3 3 4 4 4 5 7 9 12 13 14 14 14 14 13 13 12 12 11 12 12 10 9 8 8 8 7 7 7 6 5 5 5 4 2 3 3 3 3
2 1 2 1 2 3 4 4 5 7 9 10 11 11 13 15 15 14 13 13 12 12 11 11 11 11 11 10 9 8 7 7 7 7 5 4 4 5 4 4 5 4 6 5
2 2 3 1 2 1 3 4 6 8 9 11 12 12 12 13 15 14 13 12 12 12 12 11 11 11 11 10 9 8 7 7 7 6 5 4 4 4 4 5 5 6 5 4
Wind_Direction
187 198 190 182 203 182 174 175 163 143 148 177 165 152 155 161 165 154 142 133 122 108 91 75 65 61 61 57 54 48 44 44 48 74 198 203 159 52 58 18 357 351 345 321
188 197 179 170 182 188 181 177 156 139 145 178 162 159 160 171 178 171 160 153 142 129 107 85 73 65 61 58 53 50 42 33 29 37 7 345 327 118 71 18 29 11 6 343
193 162 165 181 184 191 194 195 171 156 152 168 169 181 181 179 180 180 179 165 153 143 125 103 81 65 58 53 48 45 40 38 34 26 37 91 127 110 47 7 21 11 3 357
194 161 180 191 191 198 191 189 184 175 193 189 208 222 183 183 189 193 190 178 163 148 131 112 92 72 60 54 51 48 43 38 33 33 44 46 52 58 23 359 8 15 18 10
174 177 187 193 189 207 178 168 193 204 225 217 211 250 173 179 200 199 191 179 166 151 134 114 97 84 70 61 57 54 52 45 38 38 48 56 64 61 40 19 23 13 33 24
171 179 200 191 174 181 152 165 184 213 226 230 212 245 196 186 206 192 183 173 163 152 136 122 108 95 79 67 64 60 57 51 44 44 48 52 58 55 43 29 22 22 31 25
175 180 181 182 172 176 196 199 205 210 221 224 168 241 220 145 181 185 176 167 161 153 145 137 123 106 90 75 63 60 61 55 48 49 49 48 50 56 49 28 29 21 24 18
181 178 180 191 207 195 206 225 243 245 242 220 177 233 116 124 146 158 160 159 157 156 151 141 128 115 101 85 70 62 62 58 53 52 47 43 38 43 47 39 29 31 27 25
188 174 163 184 210 221 202 225 270 268 263 261 215 190 156 156 164 162 159 160 160 157 152 144 134 121 108 95 80 68 68 64 57 54 51 49 46 47 48 43 40 43 38 31
198 181 173 173 185 202 245 221 233 252 259 262 246 234 218 182 187 179 175 171 162 157 154 147 138 130 118 108 98 82 72 66 59 55 49 53 50 50 48 47 47 41 36 33
212 200 181 188 207 199 192 209 237 256 272 277 276 268 63 175 186 183 179 172 164 161 156 150 145 138 128 114 99 87 81 75 66 59 55 54 52 52 53 53 48 42 37 37
205 223 198 192 178 237 231 233 232 254 259 267 283 298 81 133 168 170 165 163 160 156 153 150 146 140 132 119 103 88 83 79 72 65 61 59 58 57 54 51 47 45 44 45
185 205 201 193 189 195 219 227 243 256 267 268 274 283 104 128 145 153 154 155 154 153 153 150 147 145 138 128 117 103 93 82 76 73 70 64 55 56 54 48 46 48 50 49
276 230 245 243 236 209 218 224 234 247 262 271 279 295 153 155 153 152 153 154 154 156 157 153 150 147 139 133 124 116 98 89 87 81 74 66 58 55 55 55 56 58 57 56
275 238 264 290 289 265 252 251 240 249 275 287 301 307 333 158 161 155 154 154 157 159 159 157 153 148 146 140 130 120 108 98 92 87 78 71 68 68 65 60 60 62 63 64
299 236 235 247 240 249 257 258 251 252 268 278 285 298 78 118 137 148 155 160 162 162 160 158 154 151 151 143 137 134 126 113 103 90 81 78 73 72 70 65 64 65 66 66
221 220 241 243 244 247 243 260 258 257 277 292 298 11 128 139 148 156 160 163 163 161 158 158 155 153 151 147 146 143 128 120 111 99 92 87 82 77 73 72 71 70 71 72
230 239 244 252 245 243 55 44 304 265 293 336 50 104 130 133 134 137 149 156 157 158 155 152 151 149 148 147 145 136 126 119 111 100 92 88 84 81 80 78 75 73 74 74
216 234 244 252 248 236 150 93 323 278 264 57 108 123 122 123 123 118 128 140 146 148 145 144 144 145 147 146 143 136 127 121 114 102 95 90 83 81 81 78 73 69 72 75
178 225 245 249 264 260 75 53 336 273 193 88 122 144 149 161 169 138 136 133 133 134 134 136 139 144 147 144 141 137 129 123 113 105 99 91 84 83 81 79 77 76 75 75
180 201 233 250 259 273 49 3 281 282 44 90 134 151 163 154 82 122 131 130 132 133 135 138 142 143 143 143 141 134 125 120 115 109 103 92 88 90 89 85 81 83 83 78
240 227 226 247 253 73 33 5 9 31 60 112 129 138 131 109 112 123 129 131 133 134 137 140 141 139 140 142 141 134 124 122 118 111 103 97 90 87 92 95 91 85 89 95
282 334 325 340 21 55 35 41 44 61 106 122 128 131 132 129 129 130 131 132 133 136 138 140 140 137 139 143 144 134 128 127 125 117 107 105 101 94 94 97 96 90 83 89
158 298 276 271 93 76 66 66 72 89 109 120 127 135 138 135 135 134 134 136 137 139 140 143 142 141 141 142 137 130 131 133 129 121 116 115 113 108 98 86 80 75 65 70
309 259 259 223 125 118 99 82 95 107 116 121 127 133 138 139 140 139 140 141 142 143 145 148 146 142 142 142 138 137 139 139 131 125 120 120 109 97 94 74 44 39 54 36
252 270 293 354 79 40 97 107 122 128 130 132 132 132 137 140 140 140 140 141 143 145 147 147 144 143 145 145 143 143 145 143 138 136 135 126 114 107 112 116 107 64 56 69
Height
1503 1500 1497 1495 1494 1492 1495 1497 1502 1505 1509 1509 1513 1520 1526 1529 1531 1533 1536 1539 1541 1542 1544 1544 1544 1545 1545 1545 1546 1546 1547 1548 1548 1549 1549 1549 1550 1550 1550 1551 1551 1551 1551 1551
1501 1496 1494 1496 1497 1497 1497 1500 1503 1508 1511 1510 1515 1521 1525 1529 1531 1533 1536 1538 1540 1542 1544 1544 1545 1545 1545 1545 1546 1546 1547 1547 1547 1547 1547 1548 1548 1548 1548 1548 1548 1548 1548 1548
1493 1492 1496 1498 1499 1500 1498 1498 1500 1506 1510 1511 1516 1522 1525 1528 1531 1534 1536 1538 1540 1542 1544 1545 1545 1545 1545 1545 1545 1546 1546 1546 1546 1546 1546 1546 1546 1546 1546 1546 1546 1546 1545 1545
1491 1493 1496 1497 1497 1496 1500 1496 1499 1505 1508 1508 1510 1514 1516 1522 1528 1531 1534 1536 1539 1542 1543 1545 1545 1546 1546 1546 1546 1546 1545 1545 1545 1545 1545 1545 1545 1544 1544 1544 1544 1543 1543 1543
1491 1493 1495 1496 1495 1495 1495 1497 1499 1501 1502 1505 1507 1508 1507 1515 1521 1525 1530 1534 1538 1541 1542 1544 1545 1545 1546 1546 1546 1545 1545 1545 1544 1544 1544 1544 1543 1543 1543 1542 1542 1542 1541 1541
1489 1492 1492 1492 1494 1496 1498 1500 1501 1500 1498 1509 1503 1507 1504 1507 1511 1517 1525 1531 1536 1539 1541 1543 1544 1545 1546 1546 1546 1546 1545 1544 1544 1544 1543 1542 1542 1542 1541 1541 1540 1540 1540 1539
1491 1491 1492 1493 1495 1498 1497 1501 1507 1509 1508 1504 1499 1505 1502 1503 1508 1513 1521 1528 1534 1538 1540 1542 1544 1545 1546 1546 1546 1546 1545 1545 1544 1543 1542 1542 1541 1541 1540 1540 1539 1539 1538 1538
1491 1493 1489 1490 1490 1492 1494 1494 1504 1512 1509 1499 1501 1503 1501 1507 1512 1515 1521 1526 1532 1536 1539 1541 1543 1544 1546 1546 1546 1546 1545 1545 1544 1543 1543 1542 1541 1541 1540 1539 1539 1538 1537 1537
1486 1489 1486 1489 1489 1488 1491 1490 1487 1493 1496 1501 1497 1498 1504 1509 1513 1517 1521 1526 1530 1534 1538 1541 1542 1544 1545 1546 1546 1546 1546 1545 1544 1544 1543 1542 1541 1540 1540 1539 1538 1538 1537 1536
1482 1490 1486 1488 1489 1490 1487 1487 1492 1495 1507 1508 1500 1498 1496 1503 1508 1514 1519 1524 1529 1533 1537 1540 1542 1543 1545 1545 1545 1546 1545 1545 1545 1544 1544 1543 1542 1541 1540 1539 1539 1538 1537 1536
1483 1488 1489 1487 1487 1487 1491 1492 1491 1490 1492 1502 1505 1499 1491 1496 1502 1508 1516 1522 1527 1531 1535 1538 1541 1543 1544 1545 1546 1546 1546 1545 1545 1545 1544 1543 1542 1542 1541 1540 1539 1538 1537 1536
1485 1484 1488 1486 1485 1485 1485 1486 1489 1497 1498 1495 1497 1499 1496 1497 1502 1508 1515 1521 1526 1530 1534 1537 1540 1542 1544 1545 1545 1546 1546 1546 1546 1545 1545 1544 1543 1542 1541 1541 1539 1538 1537 1536
1488 1490 1495 1494 1492 1489 1487 1487 1487 1488 1491 1494 1498 1497 1498 1500 1504 1509 1515 1521 1526 1530 1534 1537 1539 1542 1543 1544 1545 1546 1547 1546 1546 1546 1545 1545 1544 1543 1542 1541 1540 1539 1538 1537
1490 1488 1490 1494 1487 1483 1487 1487 1487 1488 1490 1491 1490 1490 1495 1500 1505 1511 1516 1521 1525 1529 1533 1536 1539 1541 1543 1544 1545 1546 1547 1547 1547 1546 1546 1545 1545 1544 1543 1542 1541 1541 1540 1539
1490 1489 1488 1486 1485 1484 1485 1486 1486 1488 1487 1489 1488 1488 1492 1499 1505 1511 1516 1520 1525 1529 1532 1535 1538 1540 1542 1544 1545 1546 1547 1547 1547 1547 1547 1546 1546 1545 1544 1543 1543 1542 1541 1541
1492 1491 1490 1490 1486 1485 1486 1485 1485 1486 1486 1486 1487 1491 1496 1502 1507 1512 1516 1520 1523 1528 1531 1535 1537 1540 1542 1544 1545 1546 1547 1548 1548 1548 1548 1548 1547 1546 1546 1545 1544 1543 1543 1542
1490 1492 1493 1491 1485 1485 1489 1485 1485 1485 1486 1487 1488 1493 1499 1504 1508 1512 1516 1519 1523 1527 1530 1534 1536 1539 1541 1543 1545 1547 1548 1548 1549 1549 1549 1549 1549 1548 1547 1547 1546 1546 1545 1544
1494 1492 1491 1489 1491 1499 1489 1485 1485 1486 1488 1489 1492 1497 1501 1506 1510 1514 1516 1519 1523 1526 1530 1533 1536 1539 1541 1543 1545 1547 1548 1549 1550 1550 1550 1550 1550 1550 1549 1549 1548 1547 1547 1546
1494 1494 1491 1491 1490 1489 1487 1487 1487 1488 1489 1493 1495 1501 1505 1509 1512 1516 1518 1520 1523 1527 1530 1533 1536 1539 1542 1544 1546 1548 1549 1550 1550 1551 1551 1552 1552 1551 1551 1551 1550 1549 1549 1549
1494 1493 1491 1491 1495 1495 1490 1489 1490 1491 1491 1497 1499 1503 1506 1508 1507 1515 1519 1522 1525 1528 1531 1534 1537 1540 1543 1545 1547 1549 1550 1551 1552 1552 1553 1553 1553 1553 1553 1553 1552 1552 1552 1552
1491 1492 1492 1491 1492 1487 1491 1491 1491 1493 1498 1500 1501 1504 1507 1507 1509 1515 1519 1523 1526 1529 1532 1535 1538 1541 1544 1546 1548 1550 1551 1552 1553 1554 1555 1555 1555 1555 1555 1555 1555 1555 1555 1554
1489 1488 1490 1490 1492 1495 1495 1492 1494 1499 1500 1501 1503 1506 1509 1511 1514 1517 1521 1524 1528 1531 1534 1537 1540 1542 1545 1548 1549 1551 1553 1554 1555 1556 1557 1557 1557 1558 1558 1557 1557 1557 1557 1557
1490 1492 1489 1492 1496 1499 1499 1499 1501 1501 1502 1503 1505 1508 1510 1513 1516 1520 1523 1526 1530 1533 1536 1539 1542 1544 1547 1549 1551 1553 1554 1556 1557 1558 1558 1559 1559 1559 1560 1560 1560 1560 1560 1560
1493 1495 1493 1493 1494 1498 1500 1501 1502 1502 1503 1505 1507 1509 1512 1515 1518 1522 1525 1528 1532 1535 1538 1541 1543 1546 1549 1551 1553 1555 1556 1557 1559 1560 1560 1561 1561 1562 1562 1562 1563 1563 1562 1562
1494 1494 1493 1493 1496 1499 1501 1502 1503 1504 1505 1507 1509 1512 1514 1516 1520 1523 1527 1530 1533 1536 1539 1542 1545 1548 1550 1553 1555 1556 1558 1559 1560 1561 1562 1563 1564 1564 1564 1564 1564 1564 1564 1563
1494 1494 1493 1492 1497 1498 1501 1503 1504 1505 1507 1509 1511 1514 1517 1519 1522 1525 1528 1532 1535 1538 1541 1544 1547 1549 1552 1554 1556 1558 1559 1561 1562 1563 1564 1565 1565 1566 1566 1566 1566 1565 1565 1564